Weather History for Esquel, Argentina

Change the Weather History Date:

Monday, April 21, 2014

  Actual Average Record
Temperature  
Mean Temperature 44 °F -  
Max Temperature 59 °F 53 °F - ()
Min Temperature 30 °F 33 °F - ()
Degree Days  
Heating Degree Days 20    
Moisture  
Dew Point 37 °F    
Average Humidity 72    
Maximum Humidity 100    
Minimum Humidity 42    
Precipitation  
Precipitation 0.00 in 0.09 in - ()
Sea Level Pressure  
Sea Level Pressure 30.15 in    
Wind  
Wind Speed 4 mph ()    
Max Wind Speed 10 mph    
Max Gust Speed -    
Visibility 16.2 miles    
Events      
T = Trace of Precipitation, MM = Missing Value Source: Averaged Metar Reports

Daily Weather History Graph

Daily Weather History Graph

Search for Another Location

Airport:

Trip Planner

Search our weather history database for the weather conditions in past years. The results will help you decide how hot, cold, wet, or windy it might be!

Date:

Astronomy

Apr. 21, 2014 Rise Set
Actual Time 8:23 AM ART 7:02 PM ART
Civil Twilight 7:54 AM ART 7:31 PM ART
Nautical Twilight 7:21 AM ART 8:04 PM ART
Astronomical Twilight 6:48 AM ART 8:36 PM ART
Moon No Moon Rise 2:25 PM ART (4/21)
Length of Visible Light 11h 36m
Length of Day
10h 38m
Waning Gibbous, 58% of the Moon is Illuminated
Apr 21
Waning Gibbous
Apr 22
Last Quarter
Apr 29
New
May 7
First Quarter
May 14
Full

Hourly Weather History & Observations

Time (ART) Temp. Windchill Dew Point Humidity Pressure Visibility Wind Dir Wind Speed Gust Speed Precip Events Conditions
12:00 AM 41 °F - 36 °F 75% 30.19 in 19 mi WSW 5.8 mph - -   Scattered Clouds
12:00 AM 41.0 °F 37.1 °F 35.6 °F 81% 30.12 in 6.2 mi WSW 5.8 mph - N/A   Partly Cloudy
1:00 AM 41.0 °F 37.1 °F 35.6 °F 81% 30.12 in 6.2 mi North 5.8 mph - N/A   Partly Cloudy
2:00 AM 37.4 °F - 33.8 °F 87% 30.12 in - Variable 2.3 mph - N/A   Clear
3:00 AM 35 °F - 33 °F 90% 30.20 in 19 mi NE 2.3 mph - -  
3:00 AM 33.8 °F - 33.8 °F 100% 30.15 in - NE 2.3 mph - N/A   Clear
4:00 AM 33.8 °F - 32.0 °F 93% 30.15 in - North 2.3 mph - N/A   Clear
5:00 AM 33.8 °F - 32.0 °F 93% 30.15 in - NE 1.2 mph - N/A   Clear
7:00 AM 33.8 °F 29.6 °F 32.0 °F 93% 30.15 in - NE 4.6 mph - N/A   Clear
8:00 AM 32.0 °F - 30.2 °F 93% 30.18 in - NW 2.3 mph - N/A   Clear
9:00 AM 30 °F - 29 °F 94% 30.25 in 19 mi NE 2.3 mph - -   Clear
9:00 AM 30.2 °F - 28.4 °F 93% 30.18 in - NE 2.3 mph - N/A   Clear
10:00 AM 37.4 °F 33.8 °F 33.8 °F 87% 30.18 in - WSW 4.6 mph - N/A   Clear
11:00 AM 44.6 °F - 41.0 °F 87% 30.18 in - Calm Calm - N/A   Clear
12:00 PM 52 °F - 41 °F 55% 30.20 in 19 mi Calm Calm - -   Clear
12:00 PM 51.8 °F - 41.0 °F 67% 30.18 in - Calm Calm - N/A   Clear
1:00 PM 55.4 °F - 41.0 °F 58% 30.15 in - NE 3.5 mph - N/A   Clear
2:00 PM 57.2 °F - 42.8 °F 59% 30.15 in - South 2.3 mph - N/A   Clear
3:00 PM 59 °F - 42 °F 42% 30.14 in 19 mi Calm Calm - -   Clear
3:00 PM 59.0 °F - 42.8 °F 55% 30.12 in - Calm Calm - N/A   Clear
4:00 PM 59.0 °F - 42.8 °F 55% 30.09 in - WSW 5.8 mph - N/A   Clear
5:00 PM 59.0 °F - 41.0 °F 51% 30.09 in - SW 9.2 mph - N/A   Clear
6:00 PM 57 °F - 43 °F 48% 30.12 in 19 mi West 10.4 mph - -   Clear
6:00 PM 57.2 °F - 42.8 °F 59% 30.09 in - West 10.4 mph - N/A   Clear
7:00 PM 55.4 °F - 41.0 °F 58% 30.09 in - WNW 6.9 mph - N/A   Clear
8:00 PM 51.8 °F - 39.2 °F 62% 30.09 in - WNW 10.4 mph - N/A   Clear
9:00 PM 53 °F - 40 °F 50% 30.17 in 19 mi West 6.9 mph - -   Scattered Clouds
9:00 PM 51.8 °F - 39.2 °F 62% 30.12 in - West 6.9 mph - N/A   Clear
10:00 PM 50.0 °F - 39.2 °F 66% 30.12 in - South 8.1 mph - N/A   Clear
11:00 PM 48.2 °F - 37.4 °F 66% 30.12 in - SW 9.2 mph - N/A   Clear